Résultats de la compétition "Course de classement" du 23-08-2007 organisée par la ligue MP
     
  Télécharger le fichier CSV.  
     
     

 Circuit "D"

Licence Nom Prénom Temps CN
précédent
Score sur
la course
Différence
13554CHATAINGClement0:27:39N/A5176N/A
10733PEZETArnaud0:28:05N/A5096N/A
7260SUTTEROlivier0:29:41N/A4821N/A
10561DUPOIRIEUXJules0:31:14N/A4582N/A
5638TARDYVictor0:31:33N/A4536N/A
10183BODYFlorentin0:31:40N/A4519N/A
17576JOLYPhilippe0:32:30N/A4403N/A
13669DESREUMAUXArthur0:32:53N/A4352N/A
13566MAZARSValentin0:32:58N/A4341N/A
6480D'HARREVILLEKenny0:33:40N/A4251N/A
8108LELOUPAnouk0:36:10N/A3957N/A
15847BACKSCHEIDEREmilie0:38:15N/A3741N/A
9171POULAINYannick0:38:21N/A3732N/A
17170VUILLEMINGuillaume0:38:27N/A3722N/A
13570SERRANDJonathan0:39:08N/A3657N/A
13076MARCHEGAYTiphane0:39:42N/A3605N/A
11475GODEFROYBruno0:39:42N/A3605N/A
8639BILQUEZHugo0:40:09N/A3564N/A
9115RAYMONDAUDLea0:40:43N/A3515N/A
9932BASSETIsia0:40:44N/A3513N/A
15093VILLEDIEURemi0:41:36N/A3440N/A
12357RINGOTAlexis0:42:22N/A3378N/A
11307BEAUVISAGELauriane0:42:53N/A3337N/A
15170DESREUMAUXVictor0:43:22N/A3300N/A
8922ROULLEAUXNoemie0:43:42N/A3275N/A
17345LARGILLERELucien0:43:46N/A3270N/A
17655MENDES DE OLIVEIRADavid0:43:48N/A3267N/A
15739BELLIOlivier0:43:56N/A3257N/A
13391ROGERAlexandre0:44:09N/A3241N/A
10771PORNETJeremie0:44:37N/A3208N/A
5167BORRELLIBernadette0:44:57N/A3184N/A
11707CHAILLARDFabien0:45:28N/A3148N/A
17392MONTIGAUDThibault0:45:44N/A3129N/A
13478KORCHAKNicole0:46:18N/A3091N/A
11474LACASSINMilan0:46:20N/A3089N/A
4182RAUTURIERMaxime0:46:5537153050-665
6706LETOUBLONAndrea0:46:58N/A3047N/A
9439MANSUYP-Yves0:47:16N/A3028N/A
16375BREDOUXSacha0:47:34N/A3009N/A
14738BIHELJulia0:49:57N/A2865N/A
14180PERCHEJulien0:50:29N/A2835N/A
17067MANIEREMarie0:50:36N/A2828N/A
16825BAYLOTClement0:50:39N/A2825N/A
16070RICHINMarion0:51:06N/A2801N/A
15675BERJOANAdrien0:53:25N/A2679N/A
8913BONDIVENNEPierre0:53:55N/A2654N/A
9976POINSIGNONElise0:54:32N/A2624N/A
12768LOGELucie0:55:21N/A2586N/A
6886FRANTZFrancoise0:55:28N/A2580N/A
10077POURREMarion0:55:58N/A2557N/A
7045LOTERIELaurine0:56:36N/A2528N/A
6391BARRIERSimon0:58:05N/A2464N/A
17681MAIRECamille0:59:53N/A2390N/A
2794EVENThibault1:00:12N/A2377N/A
17531CHANDEYSSONLaurie1:01:54N/A2312N/A
5033THIEBAULTMonique1:04:25N/A2222N/A
18400FALQUEEmilie1:05:40N/A2179N/A
2557VOGTChristiane1:08:0433292102-1227
5497COCAULTYvonne1:09:11N/A2069N/A
2446RIFFARDM-Lucie1:10:4826602021-639
18392BAYLOTChristine1:15:08N/A1905N/A
15582CIRAUDOAndrea1:15:33N/A1894N/A
3302JEANPIERREM-Therese1:16:4529901865-1125
1380DIEUDONNEMadeleine1:18:2040001827-2173
15274VERDINChristine1:20:51N/A1770N/A
2888MOULIEREM-Bernadett1:25:5135241667-1857
395BLASCONicole1:30:1530481586-1462
934TESTOUDMadeleine1:35:1422031503-700
1098MULLERM-Anne1:37:0816811473-208
14164EJSMONTMartine1:38:56N/A1447N/A
2680KIEFFERMireille1:39:4428671435-1432
643IZINGGenevieve1:41:5323351405-930
15894LUDEWIG-JAMESCarol1:48:16N/A1322N/A
1437BOUSQUETHuguette2:05:3315861140-446
14078BLAUDEZJocelyne2:08:50N/A1111N/A
17505MAGLIONEJonathanN/AN/A0N/A
3462DECHAVANNEDeniseN/A15120-1512
16143WANTIERLoicN/AN/A0N/A
2487JOLYFrancoiseN/A17010-1701
17154CARESIOHugoN/AN/A0N/A
16108BURIDANYoannN/AN/A0N/A
13628SIMONQuentinN/AN/A0N/A
16826BOISSERIESylvainN/AN/A0N/A
1156DELIMathildeN/A34270-3427

  Indice de confiance du circuit (moyenne des différences entre CN et score sur la course des 3 à 10 premiers) : 105






 Retour